Retour au catalogue

TIANQI 39

ActifCommunicationsLEO
NORAD 67478·PAYLOAD·🇨🇳 China

Lancé Jan 15, 2026 depuis Yellow Sea Launch Area

Loading…

Prochains Passages (prochaines 24 heures)

TLE

FraisSource: Space-Track

Époque: Sep 14, 2026, 19:45 UTC

1 67478U 26010C   26257.82344245 -.00000008  00000-0  82989-4 0  9994
2 67478  44.9805  38.8111 0012974  55.7721 304.4339 13.99235633 34003

Suivez TIANQI 39 en temps réel avec AllMySat

Download on the App Store